Preview of NWS' New Version of Forecast
This preview is not operational and should not be used for support decisions.

Regional Weather Roundup (RWR)

Issued by National Weather Service (NWS)

                            
000
ASPQ40 PGUM 210710
RWRPQ 
WEATHER ROUNDUP FOR THE MARIANAS AND MICRONESIA
NATIONAL WEATHER SERVICE TIYAN GU
500 PM CHST WED AUG 21 2019

GUZ001>004-210800-
MARIANA ISLANDS-
  
CITY           SKY/WX    TMP DP  RH WIND       PRES   REMARKS
GUAM AIRPORT   CLOUDY    84  75  74 NW5       29.81R HX  92           
ANDERSEN AFB   NOT AVBL                                               
ROTA AIRPORT   PTSUNNY   84  75  74 NE12      29.78R HX  92           
TINIAN AP      MOSUNNY   88  75  66 E12       29.79R HX  97           
SAIPAN AP      SUNNY     88  75  66 E9        29.80S HX  97           

$$

PMZ161-210800-
REPUBLIC OF PALAU-
  
CITY           SKY/WX    TMP DP  RH WIND       PRES   REMARKS
KOROR AP       CLOUDY    84  77  79 SW8       29.86R HX  94           
KOROR WSO      NOT AVBL                                               

$$

PMZ171>174-210800-
FEDERATED STATES OF MICRONESIA-
  
CITY           SKY/WX    TMP DP  RH WIND       PRES   REMARKS
YAP AIRPORT    CLOUDY    77  73  88 VRB6      29.78F                  
CHUUK AP       CLOUDY    86  81  84 N12       29.70S HX 102           
POHNPEI AP     NOT AVBL                                               
POHNPEI WSO    PTCLDY    84  77  79 S3        29.73R HX  94           
KOSRAE AP      NOT AVBL                                               

$$

PMZ181-210800-
REPUBLIC OF THE MARSHALL ISLANDS-
  
CITY           SKY/WX    TMP DP  RH WIND       PRES   REMARKS
KWAJALEIN AP   PTCLDY    84  77  79 SE7       29.79R HX  94           
MAJURO AP      MOCLDY    84  77  79 E9        29.78R HX  94           
MAJURO WSO     MOCLDY    82  77  83 E3        29.77R HX  91           

$$